Location: Mauktauk Taung
(22.8915°N, 94.1220°E)
Time: 16:52:21
(UTC+00:00)

Daily predictions for brighter satellites

Satellite Brightness Start Highest point End
(mag) Time Altitude Azimuth Time Altitude Azimuth Time Altitude Azimuth
NOSS 2-3 (C) 4.1 12:39:57 10° S 12:43:45 33° ESE 12:47:34 10° NE
STARLINK-1198 4.4 12:40:35 10° SW 12:44:39 59° NW 12:48:44 10° NNE
ARGOS 4.3 12:42:53 10° SE 12:47:07 24° ENE 12:51:20 10° NNE
CSL-04 Debris 4.2 12:42:11 10° SSE 12:47:32 80° ENE 12:52:55 10° N
MOS 1 Rocket 4.3 12:44:24 10° NE 12:47:38 21° E 12:50:50 10° SE
STARLINK-1179 3.4 12:45:42 10° NW 12:49:23 78° SW 12:53:06 10° SSE
Cosmos 1603 3.8 12:44:04 10° NNW 12:49:48 89° ENE 12:55:33 10° SSE
Cosmos 389 Rocket 4.4 12:49:16 10° ESE 12:50:34 12° E 12:51:53 10° ENE
Cosmos 1943 3.2 12:45:59 10° NNW 12:51:37 72° ENE 12:57:13 10° SSE
USA 102 2.1 12:52:37 16° SSE 12:53:31 86° ENE 12:59:52 10° NNW
Sakura Rocket 4.4 12:49:23 10° SW 12:55:23 54° SSE 13:03:41 10° ENE
CZ-2C R/B 3.6 12:52:21 10° NE 12:57:02 27° E 13:01:41 10° SSE
YAOGAN 1 3.5 12:54:15 10° S 12:58:25 49° W 13:02:37 10° NNW
Cosmos 1269 Rocket 4.4 12:56:29 10° NNW 13:01:43 69° WSW 13:06:56 10° S
USA 267 4.0 12:58:09 10° SSE 13:04:26 50° SW 13:10:45 10° NW
Delta 2 Rocket 4.2 13:02:03 10° W 13:05:02 30° SSW 13:07:59 11° SSE
STARLINK-1244 4.4 13:03:27 10° S 13:07:02 29° SE 13:10:37 10° ENE
Cosmos 2278 Rocket 3.5 13:03:43 10° SE 13:07:28 18° E 13:11:13 10° ENE
Cosmos 1869 Rocket 4.4 13:03:58 10° NNW 13:08:10 52° W 13:12:21 10° S
ATLAS 3B CENTAUR R/B 4.3 12:48:42 10° SW 13:08:22 57° SSE 13:17:05 10° E
STARLINK-1138 4.3 13:08:16 10° S 13:11:59 32° SE 13:15:41 10° ENE
Cosmos 1844 Rocket 3.6 13:07:40 10° SSW 13:13:10 54° WNW 13:18:42 10° N
Okean 1-7 4.4 13:11:24 15° SE 13:13:22 20° E 13:16:29 10° NE
Cosmos 1862 Rocket 3.6 13:09:11 10° S 13:13:38 89° WNW 13:18:03 10° N
Cosmos 1184 Rocket 3.8 13:12:47 10° NNW 13:15:51 46° W 13:18:56 10° S
GPS 2-04 Rocket1 2.4 13:13:05 10° WSW 13:16:33 82° NNW 13:20:10 10° ENE
STARLINK-1143 4.1 13:13:06 10° SSW 13:16:55 37° SE 13:20:45 10° ENE
CZ-2C R/B 3.9 13:14:53 10° NNE 13:19:12 47° E 13:23:35 10° S
STARLINK-1203 4.0 13:15:32 10° SSW 13:19:29 41° SE 13:23:26 10° NE
Centaur AC-122 4.3 13:11:56 10° W 13:20:10 73° S 13:24:37 17° ESE
H-2A R/B 1.9 13:16:04 10° SSE 13:20:57 73° ENE 13:25:58 10° N
Genesis I 3.3 13:17:29 10° NNW 13:21:18 72° WSW 13:24:26 14° SSE
Cosmos 405 Rocket 3.5 13:17:58 10° NNW 13:21:51 54° W 13:25:39 10° S
STARLINK-1241 3.9 13:17:59 10° SSW 13:21:54 43° SE 13:25:49 10° NE
Cosmos 1733 Rocket 3.2 13:17:54 10° N 13:22:09 53° E 13:25:35 15° SSE
Delta 198 3.5 13:18:20 10° W 13:22:55 75° N 13:26:09 15° ENE
CZ-4 R/B 4.2 13:20:36 10° SW 13:23:15 17° W 13:25:56 10° WNW
Cosmos 1500 4.2 13:20:39 10° NNW 13:24:22 48° W 13:28:03 10° SSW
STARLINK-1161 4.5 13:22:08 10° NNW 13:25:57 36° NE 13:27:59 22° E
STARLINK-1239 3.7 13:22:52 10° SSW 13:26:51 49° SE 13:30:51 10° NE
H-2A ROCKET BODY 3.2 13:27:26 10° S 13:34:06 15° E 13:36:52 10° E
STARLINK-1160 4.3 13:27:03 10° NNW 13:30:58 40° NE 13:32:46 25° ESE
Cosmos 1371 Rocket 4.0 13:26:06 10° S 13:31:16 58° ESE 13:36:24 10° NNE
STARLINK-1240 3.6 13:27:46 10° SSW 13:31:49 57° SE 13:35:52 10° NE
CZ-2C R/B 3.2 13:27:42 10° S 13:32:52 80° WSW 13:38:22 10° NNW
Cosmos 1464 Rocket 4.1 13:27:18 10° N 13:33:33 56° E 13:38:33 16° SSE
KM-V1 4.1 13:32:27 10° WNW 13:35:01 58° NNE 13:36:51 27° E
STARLINK-1170 4.1 13:31:57 10° NNW 13:35:56 46° NE 13:37:33 30° ESE
STARLINK-1216 3.5 13:32:41 10° SSW 13:36:46 66° SE 13:40:52 10° NE
Resurs 01 Rocket 3.3 13:38:20 17° ENE 13:38:33 17° ENE 13:41:26 10° NNE
Meteor 1-11 Rocket 4.0 13:34:09 10° NNW 13:39:41 69° W 13:45:09 10° S
FREGAT/IRIS 2.3 13:39:02 41° S 13:39:49 77° W 13:42:28 10° NNW
Okean 1 3.4 13:37:26 22° SSE 13:39:49 55° E 13:43:46 10° NNE
STARLINK-1150 3.9 13:36:53 10° NNW 13:40:56 53° NE 13:42:21 35° ESE
GPS 2-18 Rocket1 3.2 13:37:15 10° W 13:41:14 64° S 13:42:33 38° ESE
STARLINK-1237 3.4 13:37:37 10° SSW 13:41:44 76° SE 13:45:52 10° NE
BREEZE-M DEB (TANK) 2.6 13:39:52 10° WNW 13:41:49 35° SW 13:42:42 28° S
ERBS 2.8 13:39:10 10° SW 13:42:24 58° NW 13:45:38 10° NNE
Ariane Rocket 3.1 13:38:04 12° S 13:42:46 76° WSW 13:47:50 10° NNW
MONITOR-E 3.5 13:43:01 77° ENE 13:43:01 77° ENE 13:45:32 10° N
ASTRO E2 2.8 13:41:48 10° SW 13:45:37 48° SSE 13:46:15 43° ESE
STARLINK-1151 3.7 13:41:49 10° NNW 13:45:54 61° NE 13:47:07 40° ESE
Cosmos 1666 2.9 13:42:36 10° N 13:46:26 69° W 13:48:50 21° S
STARLINK-1202 3.5 13:42:35 10° SW 13:46:43 87° ESE 13:50:51 10° NE
Cosmos 1703 Rocket 3.4 13:44:54 20° S 13:47:48 71° E 13:52:06 10° N
STARLINK-1133 3.6 13:46:45 10° NNW 13:50:51 70° NE 13:51:54 47° ESE
Cosmos 1515 4.2 13:52:19 40° ENE 13:52:19 40° ENE 13:55:34 10° NNE
Cosmos 2251 Rocket 3.4 13:46:50 10° NNW 13:52:04 87° ENE 13:54:49 29° SSE
Cosmos 2346 Rocket 4.5 13:46:41 10° S 13:52:43 83° W 13:58:49 10° N
Meteor 1-4 Rocket 4.1 13:54:29 22° NE 13:54:29 22° NE 13:56:06 10° NNE
Orbus 7S 3.5 13:51:09 10° W 13:53:52 65° N 13:57:21 18° ENE
STARLINK-1139 3.5 13:51:43 10° NW 13:55:51 80° NE 13:56:41 55° SE
STARLINK-1246 3.8 13:52:32 10° SW 13:56:38 72° NW 14:00:46 10° NNE
DNEPR-1 R/B 4.0 13:52:22 10° NNW 13:57:44 56° ENE 13:58:53 44° ESE
Tsikada Rocket 3.9 13:52:32 10° S 13:58:44 80° E 14:04:55 10° N
Cosmos 2056 Rocket 3.4 13:54:36 10° SSW 13:59:44 82° WNW 14:04:50 10° NNE
STARLINK-1174 3.5 13:56:41 10° NW 14:00:49 89° SW 14:01:28 62° SE
STARLINK-1224 4.0 13:57:33 10° SW 14:01:38 62° NW 14:05:43 10° NNE
ASTEX 1 3.4 13:59:13 25° S 14:02:02 80° W 14:06:56 10° N
BREEZE-M DEB 3.0 14:00:33 10° WSW 14:03:04 41° WNW 14:03:04 41° WNW
GPS 2-12 Rocket1 4.1 14:00:54 10° SW 14:03:44 28° SSW 14:03:44 28° SSW
STARLINK-1149 3.5 14:01:38 10° NW 14:05:45 79° SW 14:06:13 67° S
STARLINK-1225 4.3 14:02:33 10° SW 14:06:35 54° NW 14:10:38 10° NNE
Cosmos 1536 4.3 14:03:10 10° NNW 14:06:53 35° W 14:09:33 17° SSW
SJ-6B 3.6 14:06:33 31° SSW 14:07:55 45° W 14:11:31 10° NNW
DELTA 2 R/B (1) 3.9 14:02:40 10° WNW 14:08:05 55° SW 14:09:39 41° SSE
BREEZE M DEB (TANK) 4.5 14:07:15 10° N 14:07:55 14° N 14:07:55 14° N
STARLINK-1180 3.6 14:06:40 10° NW 14:10:46 67° SW 14:11:03 65° SSW
Cosmos 1908 Rocket 3.4 14:07:51 10° N 14:12:18 78° E 14:12:40 71° SE
USA 186 4.3 14:13:07 11° W 14:13:13 11° W 14:14:01 10° WNW
MetOp-A 4.1 14:13:07 40° S 14:15:06 82° WSW 14:20:28 10° NNW
STARLINK-1153 3.9 14:11:38 10° NW 14:15:42 58° SW 14:15:48 58° SW
Resurs 1-3 3.4 14:15:42 77° SE 14:15:58 83° ENE 14:20:21 10° N
Milstar 3 Cent rocket 4.0 14:10:51 10° SSW 14:18:17 42° SE 14:33:13 10° ENE
STARLINK-1132 4.1 14:16:40 10° NW 14:20:36 50° WSW 14:20:36 50° WSW
Hubble Space Telescope 1.8 14:19:54 10° WNW 14:23:46 38° N 14:24:08 37° NNE
STARLINK-1177 4.4 14:21:42 10° NW 14:25:23 43° WSW 14:25:23 43° WSW
Cosmos 1452 Rocket 4.1 14:31:54 44° NE 14:31:54 44° NE 14:35:41 10° NNE
Aureole 1 Rocket 4.4 14:28:05 10° N 14:32:05 40° NE 14:32:05 40° NE
NATO 3D Rocket 4.0 14:27:20 10° W 14:35:05 61° SSW 14:35:25 60° S
Cosmos 1420 Rocket 4.0 14:34:30 58° SW 14:35:30 76° WNW 14:40:42 10° N
Cosmos 407 Rocket 3.8 14:38:48 10° N 14:43:22 61° NNE 14:43:22 61° NNE
Meteor 2-9 Rocket 4.3 14:40:33 10° N 14:45:00 60° NNE 14:45:00 60° NNE
Cosmos 2278 Rocket 3.5 14:45:56 10° SW 14:51:08 38° WNW 14:56:23 10° N
VEP-3 3.2 14:47:23 10° WSW 14:53:07 45° SSW 14:53:07 45° SSW
GOES 2 Rocket 4.0 14:56:00 10° WNW 15:02:42 71° NNW 15:02:42 71° NNW
Centaur D-1A AC-32 3.3 14:55:02 10° WNW 15:05:25 58° WSW 15:05:25 58° WSW
Resurs 01 Rocket 3.7 15:15:54 24° WNW 15:15:54 24° WNW 15:18:30 10° NW
Cosmos 909 Rocket 4.4 15:17:18 10° NNW 15:23:08 64° NW 15:23:08 64° NW
Terra 4.3 15:29:24 14° NNE 15:29:24 14° NNE 15:30:12 10° N
ATLAS 3B CENTAUR R/B 3.0 15:21:00 10° WSW 15:32:18 69° WNW 15:32:18 69° WNW
Cosmos 2082 Rocket 4.3 16:08:29 10° NNW 16:10:30 23° NNW 16:10:30 23° NNW
ATLAS 2AS CENTAUR R/B 4.4 16:45:51 29° NNE 16:45:51 29° NNE 16:49:20 10° NNE
FALCON 9 R/B 4.4 18:03:40 31° NNE 18:03:40 31° NNE 18:13:25 10° ENE
CENTAUR R/B 4.1 18:12:47 10° NNW 18:18:25 44° N 18:18:25 44° N
SL-16 R/B 4.2 18:58:06 27° NE 18:58:06 27° NE 19:01:44 10° NNE
Cosmos 2297 Rocket 4.3 19:15:51 10° NNE 19:19:44 22° ENE 19:19:44 22° ENE
ADEOS II 3.8 19:34:57 10° NNE 19:37:36 29° NE 19:37:36 29° NE
Cosmos 1697 Rocket 4.2 19:46:38 32° N 19:46:38 32° N 19:49:36 10° NNE
CZ-2D R/B 4.2 19:41:44 10° N 19:43:19 19° NNW 19:43:19 19° NNW
Resurs 1-4 Rocket 4.2 19:45:34 10° N 19:47:12 19° NNW 19:47:12 19° NNW
CZ-4C R/B 4.0 19:54:53 21° N 19:54:53 21° N 19:56:57 10° N
Cosmos 2227 Rocket 3.3 19:50:51 10° N 19:55:49 40° ENE 19:55:49 40° ENE
IUS-9 SRM-1 4.2 19:58:00 71° WNW 19:59:05 86° NNE 20:32:31 10° ESE
USA 234 3.8 19:54:29 10° NE 20:00:12 48° ESE 20:00:12 48° ESE
IDEFIX/ARIANE 42P 4.5 19:58:21 10° NE 20:02:22 22° E 20:02:41 22° ESE
SJ 16-02 3.9 19:58:13 10° N 19:59:15 17° N 19:59:15 17° N
ATLAS 3B R/B 4.4 20:02:27 10° NW 20:04:26 20° NW 20:04:26 20° NW
Cosmos 489 Rocket 4.5 20:28:14 68° NW 20:28:14 68° NW 20:33:54 10° N
Cosmos 2074 Rocket 4.1 20:33:25 62° WNW 20:33:25 62° WNW 20:39:11 10° N
Cosmos 1980 Rocket 2.9 20:38:08 40° NW 20:38:08 40° NW 20:42:27 10° N
SL-16 R/B 4.2 20:43:11 18° NW 20:43:11 18° NW 20:45:02 10° NW
CZ-2D R/B 4.4 20:37:58 10° N 20:40:55 46° N 20:40:55 46° N
ATLAS CENTAUR R/B 4.2 20:37:59 10° NNW 20:42:58 54° ENE 20:56:16 10° SE
CZ-2C R/B 4.0 20:39:57 10° NNE 20:42:36 39° NE 20:42:36 39° NE
Cosmos 2184 Rocket 4.3 20:46:54 49° WNW 20:46:54 49° WNW 20:52:27 10° N
ERS-2 3.1 20:53:07 46° NNE 20:53:07 46° NNE 20:55:57 10° N
CZ-3 R/B 4.1 20:34:25 34° SW 20:53:34 66° SSE 21:04:39 10° E
Cosmos 1295 Rocket 4.5 20:52:06 44° S 20:54:19 83° E 21:00:40 10° N
NOSS 2-1 (E) 3.7 21:00:10 51° NE 21:00:10 51° NE 21:02:47 10° NNE
Cosmos 2221 3.4 20:55:51 10° N 21:00:02 47° E 21:02:17 25° SE
CZ-4C R/B 4.1 21:02:23 36° ESE 21:03:13 44° ENE 21:06:39 10° N
Cosmos 2297 Rocket 3.6 20:59:05 10° NW 21:01:27 22° WNW 21:01:27 22° WNW
Cosmos 2058 2.7 21:06:42 85° WSW 21:06:45 86° W 21:10:56 10° N
Cosmos 2322 Rocket 2.4 21:06:30 35° S 21:08:53 67° ESE 21:14:27 10° NNE
STARLINK-48 3.4 21:09:40 76° N 21:09:40 76° N 21:13:21 10° NE
Cosmos 2082 3.5 21:03:55 10° NNW 21:09:31 70° WSW 21:12:47 25° S
ARIANE 5 R/B 4.4 21:09:11 14° S 21:11:22 16° SSE 21:20:13 10° ESE
STARLINK-1300 4.4 21:12:54 37° SSE 21:13:39 41° SE 21:17:33 10° NE
In-Cosmos 22 Rocket 4.2 21:13:18 41° SSW 21:15:19 70° W 21:20:59 10° N
ARIANE 5 R/B 3.8 21:12:14 10° NNW 21:15:43 23° WNW 21:15:43 23° WNW
STARLINK-1295 4.2 21:17:41 40° SSE 21:18:37 48° SE 21:22:36 10° NE
Cosmos 2154 Rocket 4.4 21:17:28 37° WSW 21:18:49 42° W 21:24:43 10° NNW
Lacrosse 4 Rocket 1.8 21:14:42 10° NNW 21:18:53 63° ENE 21:22:56 10° SSE
H-2A R/B 1.9 21:17:18 38° S 21:18:55 82° WSW 21:23:15 10° NNW
ADEOS II 4.1 21:17:01 10° NW 21:18:33 12° WNW 21:18:33 12° WNW
SL-8 Rocket 4.3 21:13:55 13° S 21:19:33 67° E 21:25:47 10° NNE
Meteor 1-28 Rocket 4.1 21:22:39 35° WNW 21:22:39 35° WNW 21:25:15 10° NNW
STARLINK-1287 4.0 21:22:28 41° S 21:23:34 55° SE 21:27:37 10° NE
Palapa 6 Rocket 4.4 21:24:31 29° WSW 21:29:07 80° S 21:36:42 10° E
CZ-2C R/B 3.0 21:25:54 10° NNE 21:31:01 60° E 21:36:00 11° S
Cosmos 1937 Rocket 4.5 21:26:53 10° NW 21:30:46 27° W 21:30:46 27° W
Cosmos 1892 3.3 21:31:58 37° W 21:31:58 37° W 21:35:30 10° NNW
Cosmos 2298 Rocket 4.0 21:27:04 10° NNW 21:32:23 84° ENE 21:37:41 10° SSE
deb Chang Zheng 4 3.4 21:28:23 10° N 21:32:39 72° WNW 21:34:32 32° SSW
STARLINK-1211 4.5 21:28:39 10° NNW 21:32:40 51° NE 21:36:42 10° SE
STARLINK-1302 3.6 21:32:01 38° SSW 21:33:28 74° SE 21:37:36 10° NE
Shenzhou-11 Module 3.3 21:34:04 24° NNW 21:34:04 24° NNW 21:35:47 10° NNE
SL-16 R/B 2.5 21:34:31 30° SW 21:36:58 50° WNW 21:42:27 10° N
STARLINK-1245 4.2 21:33:34 10° NNW 21:37:39 59° NE 21:41:43 10° SE
STARLINK-1273 3.5 21:36:49 35° SSW 21:38:28 85° SE 21:42:36 10° NE
CZ-3A R/B 3.9 21:34:20 17° SSW 21:38:33 35° SE 21:56:40 10° E
Cosmos 2227 Rocket 4.0 21:36:18 10° WNW 21:37:32 13° WNW 21:37:32 13° WNW
SAR-Lupe-4 4.1 21:37:29 10° SSE 21:40:59 59° ENE 21:44:30 10° N
IDEFIX/ARIANE 42P 3.6 21:37:19 10° NNW 21:41:48 29° WNW 21:43:29 24° WSW
STARLINK-1233 3.9 21:38:30 10° NNW 21:42:37 68° NE 21:46:43 10° SE
STARLINK-1288 3.5 21:41:36 32° SW 21:43:26 84° NW 21:47:34 10° NE
USA 234 4.3 21:37:52 10° NNE 21:43:30 32° NW 21:47:33 17° W
STARLINK-1029 4.5 21:44:04 21° WNW 21:44:31 22° NW 21:47:04 10° N
CZ-4B R/B 2.8 21:42:16 10° SE 21:45:05 35° ENE 21:47:54 10° N
Skynet4D Del rocket 4.0 21:40:47 15° WNW 21:45:21 56° N 21:50:36 10° ENE
STARLINK-1204 3.7 21:43:28 10° NW 21:47:36 78° NE 21:51:44 10° SE
STARLINK-1308 3.6 21:46:24 29° SW 21:48:24 72° NW 21:52:32 10° NE
STARLINK-64 4.1 21:47:57 27° W 21:49:09 35° NW 21:52:28 10° NNE
Cosmos 2333 Rocket 4.3 21:48:01 10° SSE 21:52:25 24° ESE 21:56:47 10° NE
STARLINK-1238 3.6 21:48:27 10° NW 21:52:35 88° NE 21:56:43 10° SE
SWIFT 3.5 21:52:10 22° SW 21:52:57 24° SSW 21:56:19 10° SE
Cosmos 1125 Rocket 3.8 21:48:41 10° N 21:53:51 70° ENE 21:59:01 10° SSE
Uosat 12 SS-18 rocket 4.3 21:49:46 10° NNW 21:54:17 89° ENE 21:59:32 10° SSE
SAR-Lupe-1 3.9 21:53:23 10° S 21:56:54 84° W 22:00:26 10° NNW
ADEOS 3.5 21:51:49 10° N 21:57:01 77° WNW 22:02:13 10° SSW
STARLINK-1201 3.5 21:53:26 10° NW 21:57:34 80° SW 22:01:41 10° SE
STARLINK-1304 3.8 21:55:57 23° WSW 21:58:22 56° NW 22:02:25 10° NNE
STARLINK-1286 4.0 21:56:08 22° WSW 21:58:32 52° NW 22:02:36 10° NNE
Centaur AC-72 4.3 21:51:14 16° SW 22:00:09 34° S 22:05:41 10° ESE
Cosmos 1869 4.3 21:57:12 10° NW 22:00:23 25° W 22:01:52 19° SW
Landsat 5 4.4 21:58:21 14° SSW 22:01:36 31° W 22:05:35 10° NW
STARLINK-1206 3.5 21:58:24 10° NW 22:02:31 70° SW 22:06:37 10° SSE
Cosmos 2366 rocket 4.0 21:58:31 10° SSW 22:04:34 61° W 22:10:42 10° N
Fermi 3.9 22:03:13 15° W 22:06:29 70° N 22:10:31 10° ENE
Cosmos 2322 4.4 22:01:50 10° S 22:07:21 54° ESE 22:12:54 10° NNE
STARLINK-1205 3.6 22:03:25 10° NW 22:07:29 60° SW 22:11:33 10° SSE
Cosmos 1408 4.1 22:06:34 17° WSW 22:07:52 20° W 22:10:41 10° NNW
Meteor 1-31 Rocket 3.2 22:05:05 10° NNE 22:08:50 61° E 22:12:36 10° S
ASTRO E2 4.2 22:07:57 16° SW 22:08:53 17° SSW 22:11:35 10° S
ALOS 3.5 22:05:31 10° NNE 22:09:55 42° E 22:14:19 10° S
STARLINK-1306 4.5 22:07:54 16° WSW 22:10:48 36° NW 22:14:42 10° NNE
STARLINK-61 3.5 22:08:12 16° SW 22:11:11 64° NW 22:15:04 10° NNE
STARLINK-1218 3.7 22:08:24 10° NW 22:12:25 52° SW 22:16:26 10° SSE
Cosmos 2360 Rocket 2.3 22:07:59 10° SSW 22:13:31 60° WNW 22:19:03 10° N
STARLINK-1254 3.9 22:13:26 10° NW 22:17:23 45° SW 22:21:20 10° SSE
Okean 3 Rocket 4.1 22:13:33 10° SSW 22:17:44 39° W 22:21:58 10° NNW
FENGYUN 3A 4.4 22:13:03 10° NNE 22:18:22 57° E 22:23:40 10° S
GPS 2-14 Rocket1 2.9 22:16:02 12° W 22:19:21 46° S 22:22:57 10° ESE
STARLINK-71 4.5 22:16:21 10° SSW 22:20:11 44° SE 22:24:01 10° NE
STARLINK-1231 4.0 22:18:29 10° NW 22:22:21 39° SW 22:26:13 10° SSE
STARLINK-69 4.3 22:19:43 10° SSW 22:23:28 48° SE 22:27:13 10° NE
STARLINK-21 4.4 22:20:56 10° SSW 22:24:36 44° SE 22:28:16 10° NE
Cosmos 2344 4.1 22:18:25 10° SSW 22:26:36 63° ESE 22:33:56 10° NE
STARLINK-45 4.0 22:22:58 10° SSW 22:26:47 55° SE 22:30:35 10° NE
STARLINK-1232 4.2 22:23:33 10° WNW 22:27:19 34° SW 22:31:04 10° S
STARLINK-70 4.1 22:24:12 10° SSW 22:27:59 54° SE 22:31:45 10° NE
Cosmos 1821 Rocket 4.3 22:21:38 10° S 22:27:59 75° E 22:34:21 10° N
Cosmos 1633 4.0 22:25:27 10° SSE 22:28:45 39° E 22:32:05 10° NNE
STARLINK-76 4.1 22:26:06 10° SSW 22:29:53 53° SE 22:33:42 10° NE
STARLINK-23 4.0 22:27:23 10° SSW 22:31:09 54° SE 22:34:54 10° NE
STARLINK-1208 4.4 22:28:38 10° WNW 22:32:16 30° SW 22:35:54 10° S
Cosmos 1500 Rocket 4.4 22:28:53 10° S 22:33:09 54° E 22:37:28 10° NNE
STARLINK-32 4.0 22:29:21 10° SSW 22:33:10 59° SE 22:37:01 10° NE
STARLINK-40 3.9 22:30:59 10° SSW 22:34:48 62° SE 22:38:40 10° NE
Cosmos 1825 4.0 22:32:51 10° WSW 22:34:53 14° W 22:36:56 10° NW
Cosmos 1727 Rocket 4.1 22:28:48 10° N 22:34:59 88° E 22:41:09 10° S
